Regional Weather Roundup
Issued by NWS

Home | Current Version | Previous Version | Graphics & Text | Print | Product List | Glossary On
Versions: 1 2 3 4 5 6 7 8 9 10 11 12 13 14 15 16 17 18 19 20 21 22 23 24 25 26 27 28 29 30 31 32 33 34 35 36 37 38 39 40 41 42 43 44 45 46 47 48 49 50
000
ASUS43 KDMX 021207
RWRIA

WEATHER ROUNDUP FOR IOWA
NATIONAL WEATHER SERVICE DES MOINES IA
700 AM CDT SUN AUG 02 2015

NOTE: "FAIR" INDICATES FEW OR NO CLOUDS BELOW 12,000 FEET WITH NO
SIGNIFICANT WEATHER AND/OR OBSTRUCTIONS TO VISIBILITY.

* - THESE STATIONS ARE NOT NWS STATIONS...THUS NOT UNDER NWS
QUALITY CONTROL.  THEY ALSO DO NOT REPORT WEATHER SUCH
AS PRECIPITATION OR FOG.

IAZ001>003-012>014-020>022-031>034-043>046-021300-
   NORTHWEST IOWA

CITY           SKY/WX    TMP DP  RH WIND       PRES   REMARKS
CARROLL *      CLEAR     70  68  94 SW13G18   29.81F
CHEROKEE *     CLEAR     70  69  96 SW7       29.80R
DENISON *      CLEAR     70  68  94 MISG      29.80F
LE MARS *      CLEAR     70  68  94 SW6       29.81R
ORANGE CITY *  CLEAR     66  64  94 SW7       29.80S
SHELDON *      CLEAR     68  66  94 SW8       29.78S
SIOUX CITY     CLEAR     68  64  87 SE3       29.80S
6HR MIN TEMP:  67; 6HR MAX TEMP:  71;

SPENCER        CLEAR     70  65  84 SW7       29.79R
6HR MIN TEMP:  69; 6HR MAX TEMP:  71;

STORM LAKE *   CLEAR     70  68  94 SW9       29.81R
$$

IAZ055>058-069>071-079>083-090>094-021300-
   SOUTHWEST IOWA

CITY           SKY/WX    TMP DP  RH WIND       PRES   REMARKS
ATLANTIC *     PTCLDY    70  70 100 SW7       29.85F
AUDUBON *      PTCLDY    70  64  83 S7        29.85F
CLARINDA *     CLEAR     68  68 100 S5        29.89F
COUNCIL BLFS * PTCLDY    70  68  94 S8        29.86S
CRESTON *      LGT RAIN  70  66  88 SW14G20   29.89R
HARLAN  *      CLEAR     68  68 100 S7        29.87R
LAMONI         CLOUDY    72  65  78 S8        29.90F
6HR MIN TEMP:  64; 6HR MAX TEMP:  73;

RED OAK *      MOCLDY    68  66  94 CALM      29.87F
SHENANDOAH *   CLEAR     70  68  94 CALM      29.86F
$$

IAZ047>049-059>061-072>074-084-021300-
   CENTRAL IOWA

CITY           SKY/WX    TMP DP  RH WIND       PRES   REMARKS
AMES           CLOUDY    69  65  86 SW7       29.81F
6HR MIN TEMP:  67; 6HR MAX TEMP:  73; 6HR PCP:  0.02;

ANKENY *       PTCLDY    73  64  73 SW8       29.84R
CHARITON *     CLEAR     72  61  68 SW10      29.88R
DES MOINES     CLOUDY    74  63  68 NW3       29.85R
6HR MIN TEMP:  73; 6HR MAX TEMP:  76;

GRINNELL*      MOCLDY    72  64  78 SW9       29.86R
KNOXVILLE *    CLEAR     72  63  73 SW8       29.85R
MARSHALLTOWN   PTCLDY    70  64  81 SW13      29.83R
6HR MIN TEMP:  69; 6HR MAX TEMP:  73;

PELLA *        CLOUDY    71  66  83 SW6       29.87R
PERRY *          N/A     75  66  73 W13G21    29.82F
$$

IAZ004>006-015-016-023>025-035-036-021300-
   NORTH CENTRAL IOWA

CITY           SKY/WX    TMP DP  RH WIND       PRES   REMARKS
ALGONA *       CLEAR     70  66  88 SW13      29.78R
CLARION *      CLEAR     66  64  94 SW10      29.78F
ESTHERVILLE    CLEAR     69  67  93 SW12      29.77R
6HR MIN TEMP:  68; 6HR MAX TEMP:  71;

FORT DODGE *   PTCLDY    68  63  83 SW10      29.79F
MASON CITY     CLEAR     70  64  81 SW20      29.76F
6HR MIN TEMP:  70; 6HR MAX TEMP:  73;

FOREST CITY *  CLEAR     68  64  88 SW9       29.77R
IOWA FALLS *     N/A     69  63  81 SW10      29.81F
$$

IAZ007>011-017>019-026>030-037>042-050>054-066-021300-
   NORTHEAST IOWA

CITY           SKY/WX    TMP DP  RH WIND       PRES   REMARKS
CEDAR RAPIDS   CLEAR     68  68 100 S12       29.83S
6HR MIN TEMP:  67; 6HR MAX TEMP:  72;

CHARLES CITY * CLEAR     70  68  94 SW8       29.78F
CLINTON *      SUNNY     68  66  94 SW5       29.88R
DECORAH *      MOCLDY    72  66  83 SW8G17    29.77S
DUBUQUE        MOSUNNY   70  67  90 SW10      29.82S
6HR MIN TEMP:  68; 6HR MAX TEMP:  72;

MONTICELLO *   CLEAR     70  68  94 S8        29.82F
OELWEIN *      CLEAR     68  66  94 SW6       29.81S
WATERLOO       CLEAR     72  64  76 SW13      29.78F
6HR MIN TEMP:  71; 6HR MAX TEMP:  74;

$$

IAZ064-065-067-068-078-021300-
   EAST CENTRAL IOWA

CITY           SKY/WX    TMP DP  RH WIND       PRES   REMARKS
DAVENPORT      SUNNY     70  66  87 SW10      29.87R
6HR MIN TEMP:  69; 6HR MAX TEMP:  74;

IOWA CITY      CLEAR     69  63  81 SW7       29.87R
6HR MIN TEMP:  67; 6HR MAX TEMP:  74;

MT. PLEASANT * MOCLDY    70  64  80 SW7       29.89S
MUSCATINE *    CLEAR     70  64  83 S6        29.88R
QUAD CITIES    SUNNY     71  64  78 SW9       29.87R
6HR MIN TEMP:  69; 6HR MAX TEMP:  75;

$$

IAZ062-063-075>077-085>089-095>099-021300-
   SOUTHEAST IOWA

CITY           SKY/WX    TMP DP  RH WIND       PRES   REMARKS
BURLINGTON     MOCLDY    69  65  86 S7        29.89S
6HR MIN TEMP:  66; 6HR MAX TEMP:  71;

FAIRFIELD *    CLEAR     66  63  88 S8        29.88S
FORT MADISON * CLEAR     70  63  78 S9        29.91R
KEOKUK *       CLEAR     70  64  83 SW10      29.90S
OSKALOOSA *      N/A     66  62  86 S6        29.87R
CENTERVILLE *  CLEAR     66  63  88 S6        29.89F
OTTUMWA        CLOUDY    67  63  87 S12       29.85F
6HR MIN TEMP:  67; 6HR MAX TEMP:  70;

WASHINGTON *   MOCLDY    68  64  88 S9        29.89R
$$

ABBREVIATIONS USED IN REMARKS
   TC - TEMPERATURES IN CELSIUS
  WCI - WIND CHILL INDEX
   HX - HEAT INDEX
  VSB - VISIBILITY
$$



USA.gov is the U.S. government's official web portal to all federal, state and local government web resources and services.